Location: Lane
(33.5226°N, 79.8788°W)
Time: 02:40:09
(UTC+00:00)

Altair - Pass Details

Date: 04 October 2022
Orbit: 1501 x 1682 km, 47.2° (Epoch: 01 December)

Event Time Altitude Azimuth Distance (km) Brightness Sun altitude
Rises 07:53:32 0° 204° (SSW) 4,680 - -41.8°
Reaches altitude 10° 07:56:45 10° 198° (SSW) 3,722 - -41.2°
Exits shadow 08:04:31 42° 144° (SE) 2,146 8.2 -39.8°
Maximum altitude 08:05:26 42° 131° (SE) 2,127 8.2 -39.6°
Drops below altitude 10° 08:14:27 10° 64° (ENE) 3,868 10.3 -37.9°
Sets 08:17:50 0° 58° (ENE) 4,879 11.1 -37.2°
